Sault Sainte Marie, MI

6:40 PM EST on February 14, 2016 (GMT -0500)
Sault Ste Marie Municipal / Sanderson Field

Weather History for KANJ - May, 2014

Change the Weather History Date:

Sunday, May 25, 2014

  Actual Average Record
Temperature  
Mean Temperature 66 °F 54 °F  
Max Temperature 82 °F 66 °F 86 °F (2010)
Min Temperature 49 °F 43 °F 28 °F (1969)
Degree Days  
Heating Degree Days 0 11  
Month to date heating degree days 436 353  
Since 1 July heating degree days 9600 8422  
Cooling Degree Days 1 0  
Month to date cooling degree days 1 0  
Year to date cooling degree days 1 0  
Growing Degree Days 16 (Base 50)    
Moisture  
Dew Point 43 °F    
Average Humidity 50    
Maximum Humidity 71    
Minimum Humidity 29    
Precipitation  
Precipitation 0.00 in 0.08 in 1.55 in (2001)
Month to date precipitation 2.77 2.03  
Year to date precipitation 12.04 9.90  
Sea Level Pressure  
Sea Level Pressure 30.03 in    
Wind  
Wind Speed 6 mph (WSW)    
Max Wind Speed 17 mph    
Max Gust Speed 24 mph    
Visibility 10 miles    
Events      
T = Trace of Precipitation, MM = Missing Value Source: NWS Daily Summary

Daily Weather History Graph

Daily Weather History Graph

Search for Another Location

Airport or City:

Trip Planner

Search our weather history database for the weather conditions in past years. The results will help you decide how hot, cold, wet, or windy it might be!

Date:

Astronomy

May. 25, 2014 Rise Set
Actual Time 5:53 AM EDT 9:15 PM EDT
Civil Twilight 5:16 AM EDT 9:53 PM EDT
Nautical Twilight 4:27 AM EDT 10:41 PM EDT
Astronomical Twilight 3:26 AM EDT 11:44 PM EDT
Moon 4:10 AM EDT (5/25) 6:05 PM EDT (5/25)
Length of Visible Light 16h 36m
Length of Day
15h 22m
Waning Crescent, 10% of the Moon is Illuminated
May 25
Waning Crescent
May 28
New
Jun 5
First Quarter
Jun 13
Full
Jun 19
Last Quarter

Hourly Weather History & Observations

Time (EDT) Temp. Dew Point Humidity Pressure Visibility Wind Dir Wind Speed Gust Speed Precip Events Conditions
12:55 AM 55.9 °F 39.0 °F 53% 30.09 in 10.0 mi Calm Calm - N/A   Clear
2:55 AM 53.1 °F 39.9 °F 61% 30.08 in 10.0 mi South 4.6 mph - N/A   Clear
3:55 AM 53.1 °F 39.9 °F 61% 30.08 in 10.0 mi SSW 5.8 mph - N/A   Clear
4:55 AM 51.1 °F 39.9 °F 66% 30.08 in 10.0 mi East 3.5 mph - N/A   Clear
5:55 AM 50.0 °F 39.9 °F 68% 30.09 in 10.0 mi East 4.6 mph - N/A   Clear
6:55 AM 51.1 °F 42.1 °F 71% 30.09 in 10.0 mi ESE 3.5 mph - N/A   Partly Cloudy
7:55 AM 54.0 °F 42.1 °F 64% 30.08 in 10.0 mi Calm Calm - N/A   Clear
8:55 AM 61.0 °F 41.0 °F 48% 30.07 in 10.0 mi WSW 4.6 mph - N/A   Clear
9:55 AM 66.9 °F 45.0 °F 45% 30.06 in 10.0 mi Calm Calm - N/A   Clear
11:55 AM 75.0 °F 48.0 °F 38% 30.05 in 10.0 mi West 8.1 mph - N/A   Clear
12:55 PM 77.0 °F 50.0 °F 39% 30.04 in 10.0 mi West 9.2 mph - N/A   Clear
1:55 PM 79.0 °F 48.9 °F 35% 30.02 in 10.0 mi NW 9.2 mph - N/A   Clear
2:55 PM 81.0 °F 50.0 °F 34% 30.00 in 10.0 mi NW 6.9 mph - N/A   Clear
3:55 PM 81.0 °F 48.0 °F 31% 29.99 in 10.0 mi WNW 9.2 mph - N/A   Clear
4:55 PM 79.0 °F 46.0 °F 31% 29.99 in 10.0 mi WSW 11.5 mph - N/A   Clear
5:55 PM 78.1 °F 45.0 °F 31% 29.98 in 10.0 mi SW 11.5 mph 19.6 mph N/A   Clear
6:55 PM 75.9 °F 41.0 °F 29% 29.97 in 10.0 mi WSW 13.8 mph 20.7 mph N/A   Clear
7:55 PM 73.0 °F 42.1 °F 33% 29.97 in 10.0 mi WSW 6.9 mph - N/A   Clear
8:55 PM 68.0 °F 41.0 °F 37% 29.97 in 10.0 mi WSW 8.1 mph - N/A   Clear
9:55 PM 66.0 °F 41.0 °F 40% 29.97 in 10.0 mi WSW 8.1 mph - N/A   Clear
10:55 PM 62.1 °F 41.0 °F 46% 29.98 in 10.0 mi West 5.8 mph - N/A   Clear
11:55 PM 60.1 °F 42.1 °F 51% 29.97 in 10.0 mi WSW 6.9 mph - N/A   Clear